カタログに戻る

COSMOS 1348 DEB

LostHEO
NORAD 35515·DEBRIS·🇷🇺 Russia

打ち上げ Apr 7, 1982 から Plesetsk Cosmodrome

Loading…

次のパス (今後24時間)

TLE

古いSource: Space-Track

元期: Jun 6, 2014, 11:22 UTC

1 35515U 82029N   14157.47362367 -.00000060  00000-0  00000+0 0  9992
2 35515  69.7663 242.9338 5130104 118.4337 261.0657  2.05421639 55997

AllMySatでCOSMOS 1348 DEBをリアルタイム追跡

Download on the App Store